sat.trackr.live / text

‹ back to catalog

STARLINK-30266

NORAD 57529 · 2023-115J

PAYLOAD ACTIVE UNKNOWN

§ Identity

Operator
Country
US
Launch date
2023-08-08
Launch site
AFWTR
Launch vehicle
Mass (kg)
RCS (m²)

Purposes: comms

External: N2YO · Heavens-Above · Gunter

§ Orbital elements

Epoch: 2026-05-25T03:02:41.947296Z

Period
94.27 min
Inclination
43.0004°
Eccentricity
0.0001258
Mean motion
15.27578435 rev/d
Perigee alt
482.2 km
Apogee alt
483.9 km
Semi-major
6,861.2 km
B*
2.5827e-5
RAAN
289.7328°
Arg perigee
279.1752°
Mean anomaly
80.8957°
Rev number
15,404

§ Raw data

STARLINK-302661 57529U 23115J   26145.12687439  .00000449  00000+0  25827-4 0  99922 57529  43.0004 289.7328 0001258 279.1752  80.8957 15.27578435154047

JSON: /api/v1/satellites/57529 · /tle

For live sub-satellite position, see the globe view (requires WebGL).

§ Visibility from observer

Set your observer location to see the next 7 days of passes ≥ 10°. The values pass through the URL so the page stays shareable.

No JS? Fill the form by hand. The geolocation button needs JavaScript.